Wind_Speed
28 26 22 18 18 15 14 13 13 13 11 10 8 8 8 8 8 8 10 11 11 13 14 15 16 17 18 19 20 21 22 22 21 21 20 19 17 16 15 13 12 11 11 11
27 24 21 20 18 15 14 13 12 11 11 10 8 7 6 6 6 7 9 10 11 12 14 15 16 17 18 19 20 21 21 22 22 21 21 20 18 17 15 14 13 12 10 10
23 21 22 20 17 15 13 12 12 12 10 10 8 6 4 3 3 6 8 10 11 12 13 14 16 17 18 19 20 20 21 22 22 22 21 21 19 17 16 15 14 13 11 10
24 23 21 19 17 14 12 11 11 11 10 9 7 4 2 1 2 4 6 8 9 11 13 14 16 17 18 19 20 21 21 22 22 22 22 22 21 19 18 16 15 14 12 10
22 21 19 17 15 14 11 11 11 11 9 8 6 4 2 2 1 3 4 6 8 10 12 14 15 16 17 19 20 21 22 22 22 22 22 22 21 20 19 18 17 15 14 12
20 19 17 15 14 13 11 11 11 10 9 8 6 4 3 4 3 3 4 5 8 9 11 12 14 15 17 18 19 20 21 22 22 22 22 22 22 21 20 19 18 17 16 14
20 18 16 15 13 13 12 12 12 11 10 9 6 5 5 4 3 3 4 5 7 8 10 11 13 15 16 17 18 20 21 22 22 22 22 22 22 22 21 20 19 19 18 17
19 17 16 14 13 12 12 12 12 12 12 9 7 6 5 4 3 3 3 5 6 8 9 11 13 14 16 17 18 19 20 21 22 22 22 22 22 22 22 21 21 20 19 19
18 16 15 13 12 12 12 12 12 12 12 10 9 7 6 4 3 2 3 4 5 7 9 11 13 14 16 17 18 19 19 20 21 22 22 23 22 22 22 22 22 21 20 19
14 14 14 12 12 12 12 12 12 13 12 11 9 8 7 5 3 1 1 3 5 7 9 11 13 14 15 17 17 18 19 20 21 21 22 23 23 23 23 23 23 22 21 21
14 14 13 12 12 12 11 12 12 12 12 11 9 8 7 5 4 2 1 2 4 6 9 11 13 14 15 17 17 18 19 20 21 21 22 22 23 23 23 23 23 23 22 22
14 14 13 12 11 11 11 12 12 12 12 10 9 8 7 6 5 3 1 2 5 7 9 11 13 14 15 16 17 18 19 20 21 21 22 22 22 23 23 23 23 23 22 22
15 14 13 12 12 12 12 12 12 12 12 10 9 8 8 6 5 3 2 4 6 8 10 12 13 14 15 16 17 18 19 20 21 22 22 22 22 23 23 23 23 23 22 22
16 15 14 14 13 13 13 13 13 13 12 11 9 8 8 6 5 4 4 5 6 8 10 12 13 15 16 17 18 18 19 20 21 22 22 22 22 23 23 23 23 23 23 23
16 16 16 15 14 13 14 14 14 13 12 11 9 8 8 8 7 6 5 6 7 9 10 12 13 15 16 17 18 19 19 20 21 21 22 22 23 23 23 23 23 23 23 23
16 16 16 15 14 14 15 15 15 14 13 11 10 9 9 8 7 6 6 7 9 10 11 12 14 15 16 17 18 19 20 20 21 22 22 23 23 23 23 23 23 23 23 23
15 15 15 15 15 13 13 14 15 14 13 12 10 10 10 9 8 7 8 9 10 11 12 13 14 15 16 17 18 19 20 21 22 23 23 23 23 23 23 23 23 23 23 23
14 15 15 15 15 14 12 15 15 15 14 13 11 11 10 10 9 10 10 11 12 12 13 14 15 16 17 18 19 20 21 22 22 23 24 24 24 24 23 23 23 23 23 23
15 15 16 16 15 13 14 14 15 15 14 14 13 13 12 11 12 12 12 12 13 14 14 15 16 17 18 19 20 21 22 23 24 24 25 25 24 24 24 23 23 23 23 23
16 16 16 16 16 14 14 16 17 16 15 15 15 15 14 13 14 14 14 14 15 15 16 16 17 18 19 20 21 23 24 25 25 25 26 26 25 24 24 23 23 23 23 23
18 17 17 17 17 15 15 16 17 17 16 16 16 16 16 15 16 16 16 17 17 17 17 18 18 19 20 22 23 24 25 26 26 26 26 26 26 25 24 23 23 23 23 23
19 19 19 19 18 15 17 17 18 18 18 18 18 17 17 17 17 17 18 18 18 19 19 19 19 20 21 23 24 25 26 27 27 27 27 27 26 26 25 24 24 23 23 23
20 21 21 21 20 19 20 19 19 19 19 19 19 19 19 19 19 19 19 19 20 20 20 20 21 21 22 24 25 26 27 28 28 28 28 27 27 26 26 25 25 24 24 23
23 23 23 23 21 21 21 21 21 21 21 21 21 20 20 20 20 20 20 21 21 21 21 21 22 23 24 25 26 27 28 29 29 29 29 28 27 27 27 26 25 25 24 24
26 26 26 25 23 23 23 23 23 23 22 22 22 22 22 22 22 22 22 22 22 22 22 23 23 24 26 27 28 29 30 30 31 30 30 29 28 28 27 27 26 26 25 24
28 29 29 27 26 26 25 25 25 24 24 24 24 23 23 23 23 23 23 23 23 23 24 24 25 26 27 28 29 30 31 32 32 31 31 30 30 29 28 28 27 26 26 25
Wind_Direction
222 226 229 236 242 247 254 261 274 288 301 307 314 332 340 342 349 5 17 19 16 10 8 7 6 6 4 2 1 360 360 359 359 358 356 354 351 349 346 339 329 315 299 282
221 224 227 231 236 242 250 259 279 293 300 304 315 330 332 332 352 13 20 20 17 14 13 11 10 9 7 5 4 3 4 3 2 2 0 358 355 352 349 348 345 335 320 303
220 221 224 227 231 239 249 264 278 289 295 302 315 321 312 322 5 24 22 17 16 16 15 14 13 12 10 9 8 7 6 6 5 5 5 4 1 359 356 352 348 344 334 320
211 215 220 224 229 240 251 264 273 278 284 292 295 291 271 288 37 34 22 14 13 15 14 13 12 11 10 10 9 8 8 8 8 8 8 7 7 6 3 359 354 350 345 335
209 214 218 222 229 240 250 258 263 269 275 270 263 250 217 175 103 53 28 16 15 14 12 10 9 8 8 8 9 9 9 9 9 10 10 10 10 9 7 4 360 354 349 342
205 209 214 218 230 242 245 251 256 260 259 247 233 211 179 162 130 79 43 26 19 13 10 7 6 6 6 7 7 8 9 9 9 10 11 11 11 10 9 7 5 1 356 349
201 206 212 220 231 240 245 248 251 250 244 235 217 192 164 154 125 92 58 36 20 10 6 4 4 4 4 5 5 6 7 8 9 10 10 11 10 9 8 8 6 4 0 356
199 204 212 218 228 237 240 243 245 245 243 232 210 185 172 152 122 91 58 33 16 7 2 0 360 360 360 0 1 2 4 6 7 8 9 9 10 9 8 7 6 4 2 359
197 202 210 219 229 234 236 239 239 238 241 231 208 188 177 166 142 99 48 20 7 360 356 355 356 356 356 357 358 358 0 2 4 5 6 8 8 8 8 7 6 5 3 1
199 203 208 218 227 232 234 233 229 228 235 232 212 196 185 183 166 136 22 356 352 349 349 350 352 353 353 354 355 355 356 358 360 1 2 3 5 5 6 6 5 4 3 2
206 209 211 219 224 227 228 228 224 223 227 227 212 198 193 186 184 191 260 338 342 342 343 345 348 350 351 353 353 353 354 354 355 357 358 360 1 3 3 3 2 2 1 1
218 222 221 224 226 231 229 222 218 219 224 225 218 201 200 191 193 201 256 325 331 334 338 341 344 347 348 350 351 352 352 352 353 354 355 357 358 360 0 0 360 359 358 359
229 232 229 230 232 232 225 217 214 217 221 222 218 204 203 197 205 226 274 305 319 327 334 338 341 344 346 347 348 349 349 350 351 352 353 354 355 356 357 358 358 358 357 357
235 240 240 240 240 235 222 215 214 215 218 219 211 204 203 210 223 243 270 294 313 323 330 334 338 341 343 345 346 347 348 348 348 349 350 351 352 353 354 355 355 356 356 356
239 241 243 244 245 240 227 219 217 218 218 216 205 203 208 219 231 248 271 294 309 317 323 328 333 337 340 341 342 343 345 345 346 346 347 348 349 350 350 351 352 353 353 353
236 238 240 244 245 237 225 220 220 219 218 215 209 207 217 225 237 254 275 293 303 310 316 323 328 332 335 337 338 339 340 342 342 343 344 345 345 345 346 347 349 349 350 351
232 235 237 239 240 233 222 218 219 221 221 220 218 219 226 234 247 263 279 290 297 304 311 318 323 328 331 334 336 337 337 339 340 342 342 341 341 342 342 344 345 347 348 349
232 234 235 236 238 232 219 219 220 222 223 226 227 232 238 244 256 267 277 286 292 299 306 313 318 323 327 331 333 334 335 336 337 338 338 338 338 338 339 340 342 344 345 346
232 234 236 238 239 228 225 227 227 226 227 232 234 238 244 250 260 267 274 282 289 296 302 308 314 319 323 327 330 332 333 334 334 333 334 335 335 335 335 336 337 339 340 342
236 237 239 239 240 229 224 229 231 232 233 237 240 244 249 255 262 268 275 282 288 293 298 303 309 314 319 323 326 328 329 330 331 330 330 330 331 331 331 332 333 335 336 338
244 243 243 244 243 234 230 233 236 238 238 242 246 249 253 257 262 269 275 281 285 288 293 299 305 310 316 320 323 326 327 327 328 328 327 327 327 327 328 328 329 330 332 333
247 247 246 246 245 241 238 238 240 243 245 248 250 254 257 260 264 269 274 279 282 286 290 296 301 307 312 316 319 322 324 324 325 325 325 325 325 325 325 325 326 326 327 329
247 248 248 248 248 247 246 246 246 246 248 250 253 256 259 262 266 270 273 277 281 284 289 294 298 303 308 312 316 318 320 321 321 322 322 322 323 323 323 322 322 322 323 324
247 247 248 248 249 250 251 251 251 250 251 253 255 257 260 263 266 270 273 277 280 283 287 291 295 300 304 308 312 315 317 318 318 318 319 319 319 320 320 319 318 318 318 319
247 249 250 249 250 250 251 253 253 254 255 257 258 259 262 265 267 270 273 276 279 282 285 289 293 296 300 304 308 312 314 315 316 316 316 315 315 315 315 315 315 315 316 316
249 250 251 252 251 251 251 253 255 257 258 259 260 261 263 265 268 270 272 274 277 281 284 287 291 294 297 301 305 308 311 312 313 313 313 312 312 312 312 312 312 312 313 313
Height
5857 5862 5865 5868 5870 5872 5873 5873 5873 5874 5873 5872 5870 5869 5868 5866 5865 5863 5862 5861 5859 5857 5854 5850 5847 5843 5839 5835 5831 5827 5822 5817 5812 5807 5803 5798 5794 5791 5788 5785 5783 5781 5780 5779
5855 5859 5863 5864 5867 5868 5869 5870 5870 5870 5869 5868 5867 5867 5866 5865 5863 5862 5860 5859 5858 5856 5853 5850 5846 5843 5839 5835 5831 5826 5821 5816 5812 5807 5802 5798 5794 5790 5787 5784 5781 5779 5777 5776
5852 5857 5858 5861 5863 5864 5866 5867 5867 5867 5867 5865 5865 5866 5865 5864 5862 5861 5859 5859 5857 5855 5853 5850 5846 5843 5839 5835 5831 5826 5822 5817 5812 5807 5802 5797 5793 5789 5786 5783 5780 5778 5776 5774
5847 5851 5855 5858 5860 5862 5864 5864 5864 5864 5864 5863 5864 5864 5864 5863 5861 5860 5859 5858 5857 5855 5852 5849 5846 5843 5839 5835 5831 5827 5822 5817 5812 5807 5802 5797 5793 5789 5785 5782 5779 5776 5774 5773
5845 5849 5852 5855 5858 5859 5861 5861 5862 5862 5862 5862 5862 5863 5863 5861 5860 5860 5859 5858 5856 5854 5852 5849 5846 5843 5839 5836 5831 5827 5822 5817 5812 5807 5803 5798 5793 5789 5785 5782 5779 5776 5773 5771
5843 5847 5850 5853 5855 5857 5858 5859 5859 5859 5860 5861 5860 5861 5861 5860 5859 5859 5858 5857 5855 5854 5852 5849 5846 5843 5840 5836 5832 5827 5823 5818 5813 5808 5803 5799 5794 5790 5786 5782 5779 5775 5773 5770
5841 5845 5848 5850 5852 5854 5855 5857 5857 5857 5857 5858 5858 5858 5859 5858 5858 5858 5857 5856 5855 5853 5852 5849 5846 5843 5840 5836 5832 5828 5823 5818 5814 5809 5804 5800 5795 5791 5787 5783 5779 5775 5772 5769
5839 5843 5846 5848 5849 5851 5852 5854 5856 5856 5856 5856 5856 5856 5857 5856 5856 5856 5856 5855 5854 5853 5851 5849 5846 5843 5839 5836 5832 5828 5824 5819 5814 5810 5805 5801 5796 5792 5787 5783 5779 5775 5772 5768
5838 5842 5844 5846 5847 5848 5849 5850 5852 5853 5853 5854 5854 5854 5855 5855 5855 5855 5855 5854 5853 5852 5851 5848 5846 5842 5839 5835 5832 5828 5824 5819 5815 5811 5806 5802 5797 5793 5788 5784 5779 5775 5771 5768
5837 5840 5842 5843 5845 5846 5847 5847 5849 5850 5850 5851 5852 5853 5854 5854 5854 5854 5854 5854 5853 5852 5850 5847 5845 5842 5838 5835 5831 5827 5823 5819 5815 5811 5807 5802 5798 5793 5789 5784 5780 5775 5771 5767
5836 5839 5840 5841 5842 5843 5844 5845 5846 5847 5848 5849 5850 5854 5853 5853 5853 5853 5853 5853 5852 5850 5849 5846 5844 5841 5837 5834 5830 5827 5823 5819 5815 5811 5807 5802 5798 5793 5789 5784 5780 5775 5771 5767
5835 5837 5838 5839 5840 5840 5841 5842 5843 5845 5846 5847 5848 5853 5851 5852 5852 5852 5852 5851 5850 5849 5847 5845 5842 5840 5836 5833 5830 5826 5822 5818 5814 5810 5806 5802 5797 5793 5789 5784 5780 5775 5771 5766
5833 5835 5836 5837 5840 5839 5839 5840 5841 5843 5844 5845 5846 5851 5849 5850 5850 5850 5850 5849 5849 5847 5846 5843 5841 5838 5835 5832 5828 5825 5821 5817 5813 5809 5805 5801 5797 5793 5788 5784 5779 5774 5770 5765
5831 5832 5834 5835 5836 5836 5836 5837 5838 5840 5841 5843 5844 5847 5848 5848 5848 5848 5848 5848 5847 5846 5844 5842 5839 5837 5834 5830 5827 5823 5820 5816 5812 5808 5804 5800 5796 5792 5787 5783 5778 5774 5769 5764
5828 5829 5830 5831 5832 5833 5834 5835 5836 5837 5839 5840 5843 5844 5846 5846 5846 5847 5846 5846 5845 5844 5842 5840 5838 5835 5832 5829 5825 5822 5818 5815 5811 5807 5803 5799 5795 5790 5786 5782 5777 5773 5768 5763
5826 5827 5827 5828 5829 5830 5831 5833 5834 5835 5837 5838 5840 5842 5843 5844 5844 5844 5844 5843 5842 5841 5840 5838 5835 5833 5830 5827 5824 5820 5817 5813 5809 5805 5801 5797 5793 5789 5785 5780 5776 5771 5767 5762
5823 5824 5825 5826 5826 5827 5829 5831 5832 5833 5835 5836 5837 5840 5840 5841 5841 5841 5841 5840 5840 5839 5837 5835 5833 5830 5828 5824 5821 5818 5814 5811 5807 5803 5799 5795 5791 5787 5782 5778 5774 5770 5765 5761
5821 5821 5822 5823 5825 5825 5830 5828 5829 5830 5832 5833 5835 5836 5837 5838 5838 5838 5838 5837 5837 5835 5834 5832 5830 5827 5825 5822 5818 5815 5811 5808 5804 5800 5796 5792 5788 5784 5780 5776 5772 5768 5763 5759
5818 5819 5820 5821 5821 5823 5826 5826 5827 5828 5830 5831 5832 5833 5833 5834 5834 5834 5834 5834 5833 5832 5830 5829 5826 5824 5821 5818 5815 5812 5808 5805 5801 5797 5793 5789 5785 5781 5777 5773 5769 5765 5761 5757
5815 5816 5817 5817 5818 5820 5824 5823 5823 5826 5827 5827 5828 5829 5830 5830 5831 5831 5830 5829 5829 5828 5826 5825 5823 5820 5818 5815 5811 5808 5804 5801 5797 5793 5789 5785 5782 5778 5774 5770 5766 5763 5759 5755
5811 5812 5813 5813 5814 5816 5819 5819 5820 5823 5824 5823 5824 5824 5825 5826 5826 5826 5825 5825 5824 5823 5822 5820 5818 5816 5813 5810 5807 5804 5800 5797 5793 5789 5785 5781 5778 5774 5770 5767 5763 5759 5756 5752
5807 5808 5809 5809 5810 5815 5814 5815 5816 5817 5818 5818 5819 5819 5820 5821 5821 5821 5820 5820 5819 5818 5817 5815 5813 5811 5809 5806 5803 5800 5796 5793 5789 5785 5781 5777 5773 5769 5766 5762 5759 5755 5752 5749
5802 5803 5803 5805 5808 5808 5808 5809 5810 5811 5812 5813 5814 5814 5815 5815 5815 5815 5815 5814 5813 5812 5811 5810 5808 5806 5803 5801 5798 5795 5792 5788 5784 5780 5776 5772 5768 5765 5761 5758 5754 5751 5748 5745
5796 5796 5797 5799 5801 5802 5802 5803 5804 5805 5806 5807 5808 5808 5809 5809 5809 5809 5808 5808 5807 5806 5805 5804 5802 5800 5798 5795 5793 5790 5786 5783 5779 5775 5771 5767 5764 5760 5756 5753 5749 5746 5743 5740
5789 5789 5789 5791 5793 5794 5796 5796 5797 5798 5799 5800 5800 5801 5801 5802 5802 5802 5801 5801 5800 5799 5798 5797 5796 5794 5792 5789 5787 5784 5780 5777 5773 5769 5766 5762 5758 5755 5751 5747 5744 5741 5738 5735
5781 5781 5782 5783 5785 5786 5787 5788 5789 5790 5791 5792 5793 5793 5794 5794 5794 5794 5794 5794 5793 5793 5792 5790 5789 5787 5785 5783 5780 5777 5774 5770 5766 5763 5759 5755 5752 5748 5745 5741 5738 5735 5732 5729